Weather History for Rexburg, ID

Change the Weather History Date:

Saturday, December 1, 2012

  Actual Average Record
Temperature  
Mean Temperature 45 °F 24 °F  
Max Temperature 52 °F 32 °F 52 °F (2012)
Min Temperature 37 °F 15 °F 5 °F (2000)
Degree Days  
Heating Degree Days 20 41  
Month to date heating degree days 20 41  
Since 1 July heating degree days 1707 2053  
Cooling Degree Days 0 0  
Month to date cooling degree days 0 0  
Year to date cooling degree days 419 208  
Moisture  
Dew Point 37 °F    
Average Humidity 78    
Maximum Humidity 92    
Minimum Humidity 63    
Precipitation  
Precipitation 0.18 in 0.03 in 0.20 in (2005)
Month to date precipitation 0.18 0.03  
Year to date precipitation 9.23 12.06  
Sea Level Pressure  
Sea Level Pressure 29.92 in    
Wind  
Wind Speed 11 mph (SSW)    
Max Wind Speed 31 mph    
Max Gust Speed 39 mph    
Visibility 9 miles    
Events Rain , Thunderstorm    
T = Trace of Precipitation, MM = Missing Value Source: NWS Daily Summary

Daily Weather History Graph

Daily Weather History Graph

Search for Another Location

Airport:

Trip Planner

Search our weather history database for the weather conditions in past years. The results will help you decide how hot, cold, wet, or windy it might be!

Date:

Astronomy

Dec. 01, 2012 Rise Set
Actual Time 7:42 AM MST 4:50 PM MST
Civil Twilight 7:09 AM MST 5:23 PM MST
Nautical Twilight 6:33 AM MST 5:59 PM MST
Astronomical Twilight 5:59 AM MST 6:33 PM MST
Moon 7:46 PM MST (12/1) 9:55 AM MST (12/1)
Length of Visible Light 10h 13m
Length of Day
9h 08m
Waning Gibbous, 91% of the Moon is Illuminated
Dec 1
Waning Gibbous
Dec 6
Last Quarter
Dec 13
New
Dec 19
First Quarter
Dec 28
Full

Hourly Weather History & Observations

Time (MST) Temp. Windchill Dew Point Humidity Pressure Visibility Wind Dir Wind Speed Gust Speed Precip Events Conditions
12:44 AM 37.4 °F 27.8 °F 35.6 °F 93% 29.89 in 10.0 mi SSW 17.3 mph 28.8 mph N/A   Mostly Cloudy
12:53 AM 37.0 °F 28.5 °F 35.1 °F 93% 29.90 in 10.0 mi SSW 13.8 mph 23.0 mph N/A   Mostly Cloudy
1:21 AM 37.4 °F 27.8 °F 35.6 °F 93% 29.89 in 10.0 mi South 17.3 mph 27.6 mph N/A   Scattered Clouds
1:53 AM 37.9 °F 29.6 °F 35.1 °F 89% 29.91 in 10.0 mi South 13.8 mph 23.0 mph N/A   Partly Cloudy
2:13 AM 37.4 °F 28.9 °F 35.6 °F 93% 29.91 in 10.0 mi South 13.8 mph 20.7 mph N/A   Mostly Cloudy
2:36 AM 37.4 °F 30.3 °F 35.6 °F 93% 29.91 in 10.0 mi South 10.4 mph - N/A   Mostly Cloudy
2:53 AM 39.0 °F 32.3 °F 36.0 °F 89% 29.92 in 10.0 mi South 10.4 mph - N/A   Mostly Cloudy
3:53 AM 39.0 °F 32.3 °F 37.0 °F 93% 29.92 in 10.0 mi South 10.4 mph - N/A   Mostly Cloudy
4:53 AM 37.9 °F 33.5 °F 36.0 °F 93% 29.92 in 10.0 mi South 5.8 mph - N/A   Mostly Cloudy
5:53 AM 39.9 °F 32.9 °F 35.1 °F 83% 29.92 in 10.0 mi South 11.5 mph - N/A   Mostly Cloudy
6:53 AM 41.0 °F 34.7 °F 35.1 °F 79% 29.94 in 10.0 mi SSW 10.4 mph - N/A   Partly Cloudy
9:36 AM 39.2 °F 32.0 °F 37.4 °F 93% 29.97 in 7.0 mi WSW 11.5 mph - 0.02 in Rain Light Rain
9:48 AM 39.2 °F 32.5 °F 37.4 °F 93% 29.97 in 2.0 mi WSW 10.4 mph - 0.08 in Rain , Thunderstorm Light Thunderstorms and Rain
10:03 AM 39.2 °F 33.6 °F 37.4 °F 93% 29.97 in 10.0 mi West 8.1 mph - 0.00 in   Overcast
10:38 AM 41.0 °F 39.0 °F 37.4 °F 87% 29.95 in 10.0 mi SSW 3.5 mph - 0.00 in   Overcast
10:53 AM 43.0 °F - 39.0 °F 86% 29.96 in 10.0 mi Calm Calm - 0.00 in Rain Light Rain
11:03 AM 39.2 °F 35.9 °F 37.4 °F 93% 29.94 in 3.0 mi Variable 4.6 mph 19.6 mph 0.04 in Rain , Thunderstorm Light Thunderstorms and Rain
11:31 AM 42.8 °F 40.1 °F 39.2 °F 87% 29.93 in 10.0 mi South 4.6 mph - 0.09 in   Scattered Clouds
12:53 PM 51.1 °F - 42.1 °F 71% 29.90 in 10.0 mi SW 16.1 mph 21.9 mph N/A   Overcast
1:53 PM 51.1 °F - 39.9 °F 66% 29.89 in 10.0 mi SW 20.7 mph 27.6 mph 0.01 in   Mostly Cloudy
2:53 PM 48.0 °F - 39.0 °F 71% 29.90 in 10.0 mi SW 25.3 mph 38.0 mph 0.00 in   Mostly Cloudy
4:53 PM 44.1 °F 37.4 °F 37.0 °F 76% 29.92 in 10.0 mi SSW 13.8 mph - N/A   Partly Cloudy
5:53 PM 43.0 °F 37.2 °F 37.0 °F 80% 29.94 in 10.0 mi South 10.4 mph 20.7 mph N/A   Mostly Cloudy
6:53 PM 44.1 °F 40.8 °F 37.0 °F 76% 29.92 in 10.0 mi South 5.8 mph - N/A   Overcast
7:53 PM 44.1 °F 38.6 °F 35.1 °F 71% 29.93 in 10.0 mi South 10.4 mph - N/A   Overcast
8:53 PM 45.0 °F 40.1 °F 36.0 °F 71% 29.90 in 10.0 mi South 9.2 mph - N/A   Mostly Cloudy
9:53 PM 45.0 °F 39.7 °F 35.1 °F 68% 29.91 in 10.0 mi South 10.4 mph - 0.00 in   Overcast
10:53 PM 45.0 °F 39.3 °F 36.0 °F 71% 29.88 in 10.0 mi South 11.5 mph - 0.00 in   Overcast
11:53 PM 44.1 °F 39.5 °F 36.0 °F 73% 29.84 in 10.0 mi South 8.1 mph - N/A   Mostly Cloudy